Hourly Data Report for October 24, 2016

All times are specified in Local Standard Time (LST). Add 1 hour to adjust for Daylight Saving Time where and when it is observed.

ARVIAT A
NUNAVUT

61°05'38.000" N
94°04'18.000" W
10.40 m
2300427
71174
YEK

Related Data

No related data is available for this station

Download Data

Hourly Data (October 2016)
Hourly Data Report for October 24, 2016
Temp Definition
°C
Dew Point Temp Definition
°C
Rel Hum Definition
%
Wind Dir Definition
10's deg

Wind Spd Definition
km/h
Visibility Definition
km
Stn Press Definition
kPa
Hmdx Definition


Wind Chill Definition


Weather Definition


TIME
00:00 Legend Double Dagger 1.0 0.4 96 10 18 16.1 102.68     LegendNANA
01:00 Legend Double Dagger 1.0 0.3 95 8 24 16.1 102.72     LegendNANA
02:00 Legend Double Dagger 0.7 0.1 96 10 22 16.1 102.78     LegendNANA
03:00 Legend Double Dagger 0.8 -0.2 93 11 18 16.1 102.83     LegendNANA
04:00 Legend Double Dagger 0.9 -1.2 86 10 18 16.1 102.87     LegendNANA
05:00 Legend Double Dagger 1.1 -2.2 79 9 18 16.1 102.95     LegendNANA
06:00 Legend Double Dagger 0.9 -2.1 80 10 15 16.1 103.00     LegendNANA
07:00 Legend Double Dagger 0.9 -2.2 80 9 13 16.1 103.03     LegendNANA
08:00 Legend Double Dagger 1.0 -1.6 83 10 11 16.1 103.06     LegendNANA
09:00 Legend Double Dagger 1.1 -2.2 79 12 17 16.1 103.09     LegendNANA
10:00 Legend Double Dagger 1.1 -1.5 83 11 11 16.1 103.13     LegendNANA
11:00 Legend Double Dagger 1.4 -2.3 76 12 18 16.1 103.17     LegendNANA
12:00 Legend Double Dagger 1.6 -2.2 76 12 15 16.1 103.21     LegendNANA
13:00 Legend Double Dagger 1.9 -3.7 67 11 13 16.1 103.23     LegendNANA
14:00 Legend Double Dagger 1.8 -2.7 72 12 13 16.1 103.27     LegendNANA
15:00 Legend Double Dagger 1.6 -3.8 68 12 11 16.1 103.29     LegendNANA
16:00 Legend Double Dagger 1.3 -3.5 70 12 13 16.1 103.30     LegendNANA
17:00 Legend Double Dagger 1.1 -3.1 74 14 13 16.1 103.30     LegendNANA
18:00 Legend Double Dagger 0.8 -2.9 76 13 11 16.1 103.33     LegendNANA
19:00 Legend Double Dagger 0.8 -2.6 78 15 9 16.1 103.33     LegendNANA
20:00 Legend Double Dagger 0.8 -2.8 77 15 9 16.1 103.32     LegendNANA
21:00 Legend Double Dagger 0.6 -2.1 82 17 11 16.1 103.33     LegendNANA
22:00 Legend Double Dagger 0.6 -2.0 83 18 9 16.1 103.34     LegendNANA
23:00 Legend Double Dagger 0.4 -1.7 86 19 8 16.1 103.33     LegendNANA

Notes on Data Quality.

Legend

  • E = Estimated
  • M = Missing
  • NA = Not Available
  • ‡ = Partner data that is not subject to review by the National Climate Archives
Date modified: